Port Huron, MI

7:22 PM EDT on May 29, 2017 (GMT -0400)
Saint Clair County International

Weather History for KPHN - August, 2013

Change the Weather History Date:

Monday, August 26, 2013

  Actual Average (KMTC) Record (KMTC)
Temperature  
Mean Temperature 74 °F -  
Max Temperature 82 °F 79 °F 96 °F (1953)
Min Temperature 66 °F 60 °F 48 °F (1964)
Cooling Degree Days 9    
Growing Degree Days 24 (Base 50)    
Moisture  
Dew Point 68 °F    
Average Humidity 84    
Maximum Humidity 100    
Minimum Humidity 65    
Precipitation  
Precipitation 0.00 in - - ()
Sea Level Pressure  
Sea Level Pressure 30.06 in    
Wind  
Wind Speed 3 mph (SW)    
Max Wind Speed 14 mph    
Max Gust Speed 18 mph    
Visibility 9 miles    
Events Fog , Rain    
Averages and records for this station are not official NWS values.
T = Trace of Precipitation, MM = Missing Value Source: NWS Daily Summary

Daily Weather History Graph

Daily Weather History Graph

Search for Another Location

Airport or City:

Trip Planner

Search our weather history database for the weather conditions in past years. The results will help you decide how hot, cold, wet, or windy it might be!

Date:

Astronomy

Aug. 26, 2013 Rise Set
Actual Time 6:48 AM EDT 8:14 PM EDT
Civil Twilight 6:18 AM EDT 8:43 PM EDT
Nautical Twilight 5:43 AM EDT 9:19 PM EDT
Astronomical Twilight 5:05 AM EDT 9:57 PM EDT
Moon 11:13 PM EDT (8/26) 12:59 PM EDT (8/26)
Length of Visible Light 14h 25m
Length of Day
13h 26m
Waning Gibbous, 67% of the Moon is Illuminated
Aug 26
Waning Gibbous
Aug 28
Last Quarter
Sep 5
New
Sep 12
First Quarter
Sep 19
Full

Hourly Weather History & Observations

Time (EDT) Temp. Heat Index Dew Point Humidity Pressure Visibility Wind Dir Wind Speed Gust Speed Precip Events Conditions
12:16 AM 68.0 °F - 66.2 °F 94% 30.16 in 10.0 mi Calm Calm - N/A   Clear
12:36 AM 68.0 °F - 66.2 °F 94% 30.14 in 10.0 mi SSW 3.5 mph - N/A   Clear
12:56 AM 69.8 °F - 66.2 °F 88% 30.14 in 10.0 mi SSW 4.6 mph - N/A   Clear
1:16 AM 71.6 °F - 66.2 °F 83% 30.14 in 10.0 mi SW 4.6 mph - N/A   Clear
1:36 AM 71.6 °F - 64.4 °F 78% 30.13 in 10.0 mi SSW 4.6 mph - N/A   Clear
1:56 AM 69.8 °F - 64.4 °F 83% 30.11 in 10.0 mi SSW 3.5 mph - N/A   Clear
2:16 AM 69.8 °F - 64.4 °F 83% 30.12 in 10.0 mi Calm Calm - N/A   Clear
2:36 AM 69.8 °F - 64.4 °F 83% 30.12 in 10.0 mi Calm Calm - N/A   Clear
2:56 AM 69.8 °F - 64.4 °F 83% 30.12 in 10.0 mi SW 3.5 mph - N/A   Clear
3:16 AM 69.8 °F - 64.4 °F 83% 30.12 in 10.0 mi Calm Calm - N/A   Clear
3:36 AM 68.0 °F - 62.6 °F 83% 30.11 in 10.0 mi SSW 3.5 mph - N/A   Clear
3:56 AM 69.8 °F - 64.4 °F 83% 30.10 in 10.0 mi SSW 4.6 mph - N/A   Clear
4:16 AM 69.8 °F - 64.4 °F 83% 30.10 in 10.0 mi SW 4.6 mph - N/A   Clear
4:36 AM 69.8 °F - 64.4 °F 83% 30.10 in 10.0 mi SSW 3.5 mph - N/A   Clear
4:56 AM 69.8 °F - 62.6 °F 78% 30.11 in 10.0 mi SW 3.5 mph - N/A   Clear
5:16 AM 69.8 °F - 62.6 °F 78% 30.10 in 10.0 mi SSW 3.5 mph - N/A   Clear
5:36 AM 69.8 °F - 62.6 °F 78% 30.10 in 10.0 mi SW 5.8 mph - N/A   Clear
5:56 AM 69.8 °F - 62.6 °F 78% 30.10 in 10.0 mi SW 5.8 mph - N/A   Clear
6:16 AM 69.8 °F - 62.6 °F 78% 30.11 in 10.0 mi SW 4.6 mph - N/A   Clear
6:36 AM 69.8 °F - 62.6 °F 78% 30.12 in 10.0 mi SW 4.6 mph - N/A   Clear
6:56 AM 68.0 °F - 62.6 °F 83% 30.12 in 10.0 mi SW 3.5 mph - N/A   Clear
7:16 AM 68.0 °F - 62.6 °F 83% 30.13 in 10.0 mi Calm Calm - N/A   Clear
7:36 AM 66.2 °F - 62.6 °F 88% 30.13 in 10.0 mi WNW 3.5 mph - N/A   Clear
7:56 AM 66.2 °F - 64.4 °F 94% 30.12 in 10.0 mi NNW 3.5 mph - N/A   Clear
8:16 AM 69.8 °F - 64.4 °F 83% 30.11 in 10.0 mi SSW 5.8 mph - N/A   Clear
8:36 AM 71.6 °F - 66.2 °F 83% 30.10 in 10.0 mi SW 5.8 mph - N/A   Clear
8:56 AM 73.4 °F - 66.2 °F 78% 30.09 in 10.0 mi SW 6.9 mph - N/A   Clear
9:16 AM 73.4 °F - 66.2 °F 78% 30.08 in 10.0 mi SW 4.6 mph - N/A   Clear
9:36 AM 75.2 °F - 66.2 °F 73% 30.08 in 10.0 mi SW 5.8 mph - N/A   Clear
9:56 AM 75.2 °F - 68.0 °F 78% 30.09 in 10.0 mi SW 4.6 mph - N/A   Clear
10:16 AM 77.0 °F - 68.0 °F 74% 30.10 in 10.0 mi SW 4.6 mph - N/A   Scattered Clouds
10:36 AM 75.2 °F - 68.0 °F 78% 30.11 in 10.0 mi Calm Calm - N/A   Mostly Cloudy
10:56 AM 78.8 °F - 69.8 °F 74% 30.11 in 10.0 mi WSW 3.5 mph - N/A   Mostly Cloudy
11:16 AM 78.8 °F - 68.0 °F 69% 30.10 in 10.0 mi Calm Calm - N/A   Mostly Cloudy
11:36 AM 80.6 °F 83.2 °F 68.0 °F 65% 30.09 in 10.0 mi West 6.9 mph - N/A   Mostly Cloudy
11:56 AM 80.6 °F 83.2 °F 68.0 °F 65% 30.10 in 10.0 mi WNW 8.1 mph - N/A   Scattered Clouds
12:16 PM 80.6 °F 83.2 °F 68.0 °F 65% 30.08 in 10.0 mi West 4.6 mph - N/A   Scattered Clouds
12:36 PM 80.6 °F 83.2 °F 68.0 °F 65% 30.06 in 10.0 mi West 5.8 mph - N/A   Clear
12:56 PM 80.6 °F 83.9 °F 69.8 °F 70% 30.04 in 10.0 mi WSW 3.5 mph - N/A   Clear
1:16 PM 80.6 °F 83.9 °F 69.8 °F 70% 30.04 in 10.0 mi WSW 5.8 mph - N/A   Clear
1:36 PM 78.8 °F - 69.8 °F 74% 30.04 in 10.0 mi WSW 4.6 mph - N/A   Clear
1:56 PM 78.8 °F - 69.8 °F 74% 30.03 in 10.0 mi Calm Calm - N/A   Clear
2:16 PM 80.6 °F 84.6 °F 71.6 °F 74% 30.02 in 10.0 mi WSW 3.5 mph - N/A   Clear
2:36 PM 80.6 °F 83.9 °F 69.8 °F 70% 30.01 in 10.0 mi SW 4.6 mph - N/A   Clear
2:56 PM 80.6 °F 83.9 °F 69.8 °F 70% 30.01 in 10.0 mi WSW 3.5 mph - N/A   Clear
3:16 PM 82.4 °F 87.2 °F 71.6 °F 70% 30.01 in 10.0 mi West 3.5 mph - N/A   Clear
3:36 PM 82.4 °F 87.2 °F 71.6 °F 70% 30.00 in 10.0 mi West 4.6 mph - N/A   Scattered Clouds
3:56 PM 80.6 °F 83.9 °F 69.8 °F 70% 30.04 in 10.0 mi NW 13.8 mph 18.4 mph N/A   Mostly Cloudy
4:16 PM 73.4 °F - 71.6 °F 94% 30.00 in 3.0 mi SW 4.6 mph - N/A Rain Rain
4:36 PM 73.4 °F - 71.6 °F 94% 30.00 in 10.0 mi Calm Calm - N/A Rain Light Rain
4:56 PM 73.4 °F - 71.6 °F 94% 29.99 in 10.0 mi Calm Calm - N/A   Mostly Cloudy
5:16 PM 73.4 °F - 73.4 °F 100% 29.99 in 10.0 mi Calm Calm - N/A   Scattered Clouds
5:36 PM 75.2 °F - 73.4 °F 94% 29.99 in 10.0 mi Calm Calm - N/A   Clear
5:56 PM 77.0 °F - 73.4 °F 89% 29.97 in 10.0 mi WSW 3.5 mph - N/A   Clear
6:16 PM 77.0 °F - 75.2 °F 94% 29.97 in 10.0 mi WSW 3.5 mph - N/A   Scattered Clouds
6:36 PM 77.0 °F - 75.2 °F 94% 29.97 in 10.0 mi Calm Calm - N/A   Clear
6:56 PM 77.0 °F - 73.4 °F 89% 29.97 in 10.0 mi Calm Calm - N/A   Clear
7:16 PM 77.0 °F - 75.2 °F 94% 29.97 in 10.0 mi Calm Calm - N/A   Clear
7:36 PM 77.0 °F - 75.2 °F 94% 29.97 in 10.0 mi SW 4.6 mph - N/A   Clear
7:56 PM 75.2 °F - 73.4 °F 94% 29.97 in 7.0 mi SSW 3.5 mph - N/A   Clear
8:16 PM 75.2 °F - 73.4 °F 94% 29.97 in 5.0 mi Calm Calm - N/A   Clear
8:36 PM 73.4 °F - 73.4 °F 100% 29.98 in 4.0 mi Calm Calm - N/A   Clear
8:56 PM 73.4 °F - 73.4 °F 100% 29.99 in 5.0 mi Calm Calm - N/A   Clear
9:16 PM 71.6 °F - 71.6 °F 100% 29.99 in 1.0 mi Calm Calm - N/A   Mist
9:36 PM 71.6 °F - 71.6 °F 100% 29.99 in 0.8 mi Calm Calm - N/A   Mist
9:56 PM 69.8 °F - 69.8 °F 100% 29.99 in 0.2 mi Calm Calm - N/A Fog Fog
10:16 PM 68.0 °F - 68.0 °F 100% 29.99 in 0.2 mi Calm Calm - N/A Fog Fog
10:36 PM 71.6 °F - 71.6 °F 100% 29.98 in 7.0 mi Calm Calm - N/A   Scattered Clouds
10:56 PM 71.6 °F - 71.6 °F 100% 29.99 in 7.0 mi Calm Calm - N/A   Clear
11:16 PM 71.6 °F - 71.6 °F 100% 29.99 in 10.0 mi Calm Calm - N/A   Clear
11:36 PM 69.8 °F - 69.8 °F 100% 29.98 in 5.0 mi Calm Calm - N/A   Clear
11:56 PM 68.0 °F - 68.0 °F 100% 29.98 in 4.0 mi Calm Calm - N/A   Clear